Lamar, CO

7:01 AM MST on November 19, 2019 (GMT -0700)
Lamar Municipal

Weather History for KLAA - October, 2019

Change the Weather History Date:

Sunday, October 20, 2019

  Actual Average Record
Temperature  
Mean Temperature 49 °F 51 °F  
Max Temperature 65 °F 69 °F 90 °F (1947)
Min Temperature 32 °F 34 °F 17 °F (1989)
Degree Days  
Heating Degree Days 16 14  
Month to date heating degree days 231 204  
Since 1 July heating degree days 237 287  
Cooling Degree Days 0 0  
Month to date cooling degree days 1 8  
Year to date cooling degree days 1406 1120  
Moisture  
Dew Point 15 °F    
Average Humidity 28    
Maximum Humidity 49    
Minimum Humidity 7    
Precipitation  
Precipitation 0.00 in 0.03 in 1.39 in (1986)
Month to date precipitation 0.01 0.54  
Year to date precipitation 7.76 14.16  
Sea Level Pressure  
Sea Level Pressure 29.61 in    
Wind  
Wind Speed 13 mph (WNW)    
Max Wind Speed 33 mph    
Max Gust Speed 48 mph    
Visibility 10 miles    
Events      
T = Trace of Precipitation, MM = Missing Value Source: NWS Daily Summary

Daily Weather History Graph

Daily Weather History Graph

Search for Another Location

Airport or City:

Astronomy

Oct. 20, 2019 Rise Set
Actual Time 7:04 AM MDT 6:06 PM MDT
Civil Twilight 6:37 AM MDT 6:33 PM MDT
Nautical Twilight 6:06 AM MDT 7:03 PM MDT
Astronomical Twilight 5:36 AM MDT 7:34 PM MDT
Moon 11:21 PM MDT (10/20) 1:30 PM MDT (10/20)
Length of Visible Light 11h 55m
Length of Day
11h 02m
Waning Gibbous, 58% of the Moon is Illuminated
Oct 20
Waning Gibbous
Oct 21
Last Quarter
Oct 27
New
Nov 4
First Quarter
Nov 12
Full

Hourly Weather History & Observations

Time (MDT) Temp. Windchill Dew Point Humidity Pressure Visibility Wind Dir Wind Speed Gust Speed Precip Events Conditions
12:53 AM 52.0 °F - 27.0 °F 38% 29.49 in 10.0 mi South 19.6 mph - N/A   Clear
1:53 AM 53.1 °F - 21.9 °F 30% 29.46 in 10.0 mi SSW 13.8 mph - N/A   Clear
2:53 AM 48.0 °F - 24.1 °F 39% 29.45 in 10.0 mi South 11.5 mph - N/A   Clear
3:53 AM 42.1 °F - 21.9 °F 45% 29.44 in 10.0 mi Calm Calm - N/A   Clear
4:53 AM 52.0 °F - 14.0 °F 22% 29.40 in 10.0 mi SW 13.8 mph - N/A   Clear
5:53 AM 53.1 °F - 12.0 °F 20% 29.44 in 10.0 mi SW 12.7 mph - N/A   Clear
6:53 AM 52.0 °F - 16.0 °F 24% 29.52 in 10.0 mi NNW 18.4 mph 28.8 mph 0.00 in   Clear
7:53 AM 46.9 °F - 26.1 °F 44% 29.58 in 10.0 mi NNE 12.7 mph - N/A   Clear
8:53 AM 45.0 °F - 26.1 °F 48% 29.65 in 10.0 mi Calm Calm - N/A   Clear
9:53 AM 54.0 °F - 23.0 °F 30% 29.63 in 10.0 mi NNW 8.1 mph - N/A   Clear
10:53 AM 60.1 °F - 19.9 °F 21% 29.61 in 10.0 mi North 8.1 mph 18.4 mph N/A   Clear
11:53 AM 64.0 °F - 18.0 °F 17% 29.60 in 10.0 mi WNW 18.4 mph 35.7 mph N/A   Clear
12:53 PM 63.0 °F - 3.0 °F 9% 29.59 in 10.0 mi West 23.0 mph 38.0 mph N/A   Clear
1:53 PM 62.1 °F - -2.9 °F 7% 29.58 in 10.0 mi WNW 18.4 mph 36.8 mph N/A   Mostly Cloudy
2:53 PM 61.0 °F - -0.0 °F 9% 29.59 in 10.0 mi WNW 17.3 mph 26.5 mph N/A   Clear
3:53 PM 63.0 °F - -0.0 °F 8% 29.61 in 10.0 mi NW 17.3 mph 28.8 mph N/A   Clear
4:53 PM 62.1 °F - -0.9 °F 8% 29.62 in 10.0 mi WNW 17.3 mph 28.8 mph N/A   Clear
5:53 PM 55.9 °F - 6.1 °F 14% 29.67 in 10.0 mi North 18.4 mph 32.2 mph N/A   Clear
6:53 PM 54.0 °F - 8.1 °F 16% 29.72 in 10.0 mi North 20.7 mph 38.0 mph N/A   Clear
7:53 PM 48.9 °F - 19.9 °F 32% 29.77 in 10.0 mi North 20.7 mph 31.1 mph N/A   Clear
8:53 PM 43.0 °F 38.2 °F 19.9 °F 40% 29.82 in 10.0 mi North 8.1 mph - N/A   Clear
9:53 PM 43.0 °F 38.8 °F 19.0 °F 38% 29.80 in 10.0 mi NNW 6.9 mph - N/A   Clear
10:53 PM 37.0 °F 31.0 °F 18.0 °F 46% 29.81 in 10.0 mi WSW 8.1 mph - N/A   Clear
11:53 PM 37.9 °F 30.9 °F 17.1 °F 43% 29.81 in 10.0 mi WSW 10.4 mph - N/A   Clear